Location: Unspecified
(44.4377°N, 88.0525°W)
Time: 11:07:23
(UTC-05:00)

CZ-3 Stage 3 - Visible Passes

Search period start: 26 July 2016 00:00
Search period end: 05 August 2016 00:00
Orbit: 466 x 34738 km, 30.5° (Epoch: 26 July)

Date Brightness Start Highest point End Pass type
(mag) Time Alt. Az. Time Alt. Az. Time Alt. Az.
28 Jul 4.7 23:04:32 10° W 23:34:55 34° SW 23:37:00 31° SSW visible
31 Jul 4.7 22:55:32 10° W 23:26:22 34° SW 23:28:36 31° SSW visible
03 Aug 4.8 22:46:32 10° W 23:17:48 33° SW 23:20:14 30° SSW visible
